Location: Lucerne Valley
(34.4439°N, 116.9669°E)
Time: 03:17:54
(UTC-08:00)

Envisat - Pass Details

Date: 11 October 2017
Orbit: 764 x 766 km, 98.2° (Epoch: 16 December)

Event Time Altitude Azimuth Distance (km) Brightness Sun altitude
Exits shadow 05:49:17 20° 316° (NW) 1,724 5.3 -38.7°
Drops below altitude 10° 05:51:01 10° 328° (NNW) 2,306 6.0 -39.0°
Sets 05:53:31 0° 338° (NNW) 3,237 6.7 -39.5°
